When you browse on this site, cookies collect data to enhance your experience and personalize the content and advertising you see.
Visit our Privacy Policy to learn more. By continuing to use the site, you agree to this use of cookies and data.
  • In Romania
  • List of Countries
  • For 7 days
  • Water Temperature
  • Satellite Maps
  • Weather Map
  • Weather Widgets
  • user-avatar
    Login

    Hourly Weather Truto

    Today, 16 June, Sunday

    Time Temperature Precipitation Wind Pressure Humidity
    00:00 +10°C° 0 mm 5 mps 757 mmHg 94%
    01:00 +10°C° 0.2 mm 5 mps 757 mmHg 93%
    02:00 +11°C° 0.2 mm 6 mps 757 mmHg 93%
    03:00 +11°C° 0.2 mm 6 mps 756 mmHg 92%
    04:00 +12°C° 0.3 mm 7 mps 757 mmHg 93%
    05:00 +12°C° 0.3 mm 7 mps 757 mmHg 93%
    06:00 +12°C° 0.3 mm 7 mps 757 mmHg 94%
    07:00 +12°C° 0.3 mm 8 mps 757 mmHg 93%
    08:00 +13°C° 0.3 mm 8 mps 758 mmHg 92%
    09:00 +13°C° 0.3 mm 8 mps 758 mmHg 91%
    10:00 +13°C° 0.1 mm 8 mps 758 mmHg 91%
    11:00 +13°C° 0.1 mm 8 mps 758 mmHg 90%
    12:00 +13°C° 0.1 mm 8 mps 759 mmHg 90%
    13:00 +13°C° 0 mm 8 mps 759 mmHg 87%
    14:00 +13°C° 0 mm 9 mps 759 mmHg 84%
    15:00 +15°C° 0 mm 9 mps 759 mmHg 82%
    16:00 +15°C° 0 mm 8 mps 759 mmHg 82%
    17:00 +13°C° 0 mm 8 mps 759 mmHg 82%
    18:00 +13°C° 0 mm 8 mps 759 mmHg 83%
    19:00 +12°C° 0 mm 7 mps 759 mmHg 84%
    20:00 +12°C° 0 mm 7 mps 759 mmHg 86%
    21:00 +11°C° 0 mm 6 mps 759 mmHg 88%
    22:00 +11°C° 0 mm 6 mps 759 mmHg 86%
    23:00 +12°C° 0 mm 7 mps 759 mmHg 85%

    Tomorrow, 17 June, Monday

    Time Temperature Precipitation Wind Pressure Humidity
    00:00 +12°C° 0 mm 7 mps 759 mmHg 83%
    01:00 +13°C° 0 mm 6 mps 759 mmHg 87%
    02:00 +11°C° 0 mm 6 mps 759 mmHg 90%
    03:00 +11°C° 0 mm 6 mps 758 mmHg 94%
    04:00 +11°C° 0 mm 6 mps 758 mmHg 93%
    05:00 +13°C° 0 mm 6 mps 759 mmHg 92%
    06:00 +13°C° 0 mm 6 mps 759 mmHg 91%
    07:00 +14°C° 0 mm 6 mps 759 mmHg 89%
    08:00 +14°C° 0 mm 6 mps 759 mmHg 87%
    09:00 +15°C° 0 mm 6 mps 759 mmHg 85%
    10:00 +15°C° 0.1 mm 7 mps 759 mmHg 85%
    11:00 +16°C° 0.1 mm 7 mps 760 mmHg 84%
    12:00 +16°C° 0.1 mm 7 mps 760 mmHg 83%
    13:00 +16°C° 0.1 mm 7 mps 760 mmHg 83%
    14:00 +16°C° 0.1 mm 6 mps 760 mmHg 84%
    15:00 +16°C° 0.1 mm 6 mps 759 mmHg 84%
    16:00 +15°C° 0 mm 6 mps 759 mmHg 84%
    17:00 +15°C° 0 mm 5 mps 759 mmHg 85%
    18:00 +15°C° 0 mm 5 mps 759 mmHg 86%
    19:00 +14°C° 0 mm 4 mps 759 mmHg 89%
    20:00 +13°C° 0 mm 3 mps 760 mmHg 92%
    21:00 +12°C° 0 mm 3 mps 760 mmHg 95%
    22:00 +13°C° 0 mm 2 mps 760 mmHg 95%
    23:00 +13°C° 0 mm 2 mps 759 mmHg 96%

    Day after tomorrow, 18 June, Tuesday

    Time Temperature Precipitation Wind Pressure Humidity
    00:00 +12°C° 0 mm 2 mps 759 mmHg 96%
    01:00 +12°C° 0 mm 1 mps 759 mmHg 95%
    02:00 +12°C° 0 mm 1 mps 759 mmHg 95%
    03:00 +12°C° 0 mm 1 mps 758 mmHg 94%
    04:00 +13°C° 0 mm 1 mps 758 mmHg 93%
    05:00 +13°C° 0 mm 1 mps 758 mmHg 92%
    06:00 +14°C° 0 mm 1 mps 758 mmHg 91%
    07:00 +14°C° 0 mm 1 mps 758 mmHg 88%
    08:00 +15°C° 0 mm 2 mps 758 mmHg 86%
    09:00 +16°C° 0 mm 2 mps 758 mmHg 83%
    10:00 +16°C° 0 mm 2 mps 758 mmHg 82%
    11:00 +16°C° 0 mm 2 mps 758 mmHg 81%
    12:00 +16°C° 0 mm 2 mps 758 mmHg 80%
    13:00 +17°C° 0 mm 2 mps 757 mmHg 80%
    14:00 +17°C° 0 mm 2 mps 757 mmHg 79%
    15:00 +17°C° 0 mm 2 mps 757 mmHg 79%
    16:00 +16°C° 0 mm 2 mps 757 mmHg 81%
    17:00 +16°C° 0 mm 2 mps 756 mmHg 84%
    18:00 +16°C° 0 mm 2 mps 756 mmHg 86%
    19:00 +15°C° 0 mm 1 mps 756 mmHg 87%
    20:00 +15°C° 0 mm 1 mps 756 mmHg 89%
    21:00 +14°C° 0 mm 1 mps 756 mmHg 91%
    22:00 +14°C° 0.2 mm 1 mps 756 mmHg 92%
    23:00 +14°C° 0.2 mm 2 mps 755 mmHg 93%

    19 June, Wednesday

    Time Temperature Precipitation Wind Pressure Humidity
    00:00 +13°C° 0.2 mm 3 mps 755 mmHg 95%
    01:00 +13°C° 0.2 mm 4 mps 754 mmHg 95%
    02:00 +12°C° 0.2 mm 4 mps 754 mmHg 96%
    03:00 +12°C° 0.2 mm 4 mps 754 mmHg 96%
    04:00 +12°C° 1 mm 4 mps 754 mmHg 97%
    05:00 +12°C° 1 mm 5 mps 753 mmHg 97%
    06:00 +12°C° 1 mm 5 mps 753 mmHg 97%
    07:00 +12°C° 0.5 mm 5 mps 753 mmHg 96%
    08:00 +12°C° 0.5 mm 5 mps 753 mmHg 96%
    09:00 +12°C° 0.5 mm 5 mps 753 mmHg 95%
    10:00 +12°C° 0.1 mm 5 mps 754 mmHg 93%
    11:00 +12°C° 0.1 mm 5 mps 754 mmHg 92%
    12:00 +12°C° 0.1 mm 5 mps 754 mmHg 90%
    13:00 +13°C° 0 mm 5 mps 754 mmHg 86%
    14:00 +14°C° 0 mm 5 mps 754 mmHg 82%
    15:00 +15°C° 0 mm 5 mps 754 mmHg 78%
    16:00 +14°C° 0 mm 6 mps 755 mmHg 80%
    17:00 +14°C° 0 mm 6 mps 755 mmHg 81%
    18:00 +14°C° 0 mm 6 mps 755 mmHg 83%
    19:00 +13°C° 0 mm 5 mps 756 mmHg 86%
    20:00 +12°C° 0 mm 5 mps 756 mmHg 89%
    21:00 +10°C° 0 mm 5 mps 756 mmHg 92%
    22:00 +10°C° 0 mm 5 mps 756 mmHg 92%
    23:00 +10°C° 0 mm 5 mps 756 mmHg 92%

    20 June, Thursday

    Time Temperature Precipitation Wind Pressure Humidity
    00:00 +9°C° 0 mm 5 mps 757 mmHg 93%
    01:00 +9°C° 0 mm 5 mps 757 mmHg 93%
    02:00 +9°C° 0 mm 5 mps 757 mmHg 93%
    03:00 +9°C° 0 mm 5 mps 757 mmHg 93%
    04:00 +11°C° 0 mm 4 mps 757 mmHg 92%
    05:00 +11°C° 0 mm 4 mps 757 mmHg 92%
    06:00 +12°C° 0 mm 3 mps 757 mmHg 91%
    07:00 +13°C° 0.1 mm 4 mps 757 mmHg 88%
    08:00 +13°C° 0.1 mm 4 mps 758 mmHg 85%
    09:00 +14°C° 0.1 mm 4 mps 758 mmHg 82%
    10:00 +14°C° 0.1 mm 4 mps 758 mmHg 78%
    11:00 +15°C° 0.1 mm 5 mps 758 mmHg 75%
    12:00 +15°C° 0.1 mm 5 mps 758 mmHg 72%
    13:00 +15°C° 0.1 mm 5 mps 759 mmHg 73%
    14:00 +15°C° 0.1 mm 5 mps 759 mmHg 73%
    15:00 +15°C° 0.1 mm 6 mps 759 mmHg 74%
    16:00 +15°C° 0 mm 5 mps 759 mmHg 75%
    17:00 +14°C° 0 mm 5 mps 759 mmHg 76%
    18:00 +14°C° 0 mm 5 mps 759 mmHg 78%
    19:00 +13°C° 0 mm 4 mps 759 mmHg 82%
    20:00 +12°C° 0 mm 4 mps 759 mmHg 86%
    21:00 +11°C° 0 mm 4 mps 759 mmHg 91%
    22:00 +11°C° 0 mm 4 mps 759 mmHg 90%
    23:00 +10°C° 0 mm 4 mps 759 mmHg 90%

    21 June, Friday

    Time Temperature Precipitation Wind Pressure Humidity
    00:00 +10°C° 0 mm 4 mps 759 mmHg 89%
    01:00 +10°C° 0.1 mm 4 mps 759 mmHg 89%
    02:00 +10°C° 0.1 mm 3 mps 759 mmHg 88%
    03:00 +10°C° 0.1 mm 3 mps 759 mmHg 88%
    04:00 +11°C° 0.1 mm 3 mps 759 mmHg 87%
    05:00 +12°C° 0.1 mm 3 mps 759 mmHg 86%
    06:00 +12°C° 0.1 mm 3 mps 759 mmHg 86%
    07:00 +13°C° 0.2 mm 3 mps 760 mmHg 85%
    08:00 +13°C° 0.2 mm 3 mps 760 mmHg 84%
    09:00 +14°C° 0.2 mm 3 mps 760 mmHg 83%
    10:00 +14°C° 0.3 mm 3 mps 760 mmHg 82%
    11:00 +16°C° 0.3 mm 3 mps 761 mmHg 82%
    12:00 +15°C° 0.3 mm 4 mps 761 mmHg 81%
    13:00 +16°C° 0.2 mm 3 mps 761 mmHg 80%
    14:00 +16°C° 0.2 mm 3 mps 761 mmHg 78%
    15:00 +16°C° 0.2 mm 3 mps 761 mmHg 77%
    16:00 +16°C° 0 mm 3 mps 761 mmHg 78%
    17:00 +14°C° 0 mm 3 mps 761 mmHg 80%
    18:00 +14°C° 0 mm 3 mps 761 mmHg 81%
    19:00 +13°C° 0 mm 3 mps 762 mmHg 83%
    20:00 +12°C° 0 mm 3 mps 762 mmHg 86%
    21:00 +10°C° 0 mm 3 mps 762 mmHg 89%
    22:00 +10°C° 0 mm 3 mps 762 mmHg 89%
    23:00 +10°C° 0 mm 3 mps 762 mmHg 89%
    Show more